DW5918 Weather Reports


time (UTC)temp
C
wind
direction
speed
KPH
gust
KPH
rain 1hr
cm
rain 24hr
cm
rain mn
cm
humidity
%
barometer
mb
20260903210041 25 151 0.0 3.2 0.00 0.36 0.36 67 1012.0
20260903204622 26 275 0.0 4.8 0.00 0.36 0.36 67 1011.8
20260903203056 25 196 0.0 1.6 0.00 0.36 0.36 67 1011.9
20260903201632 26 261 0.0 1.6 0.00 0.36 0.36 67 1011.9
20260903200052 26 202 0.0 8.0 0.00 0.36 0.36 67 1011.9
20260903194631 26 309 0.0 4.8 0.00 0.36 0.36 67 1011.9
20260903193052 26 174 0.0 3.2 0.00 0.36 0.36 67 1012.2
20260903191504 25 228 0.0 3.2 0.00 0.36 0.36 66 1012.4
20260903190054 25 256 0.0 4.8 0.00 0.36 0.36 67 1012.5
20260903184511 25 237 0.0 3.2 0.00 0.36 0.36 67 1012.6
20260903183106 26 237 0.0 0.0 0.00 0.36 0.36 66 1012.7
20260903181529 25 237 0.0 1.6 0.00 0.36 0.36 64 1012.7
20260903180117 25 238 0.0 4.8 0.00 0.36 0.36 65 1012.8
20260903174604 25 254 0.0 1.6 0.00 0.36 0.36 62 1012.9
20260903173021 24 254 0.0 4.8 0.00 0.36 0.36 62 1013.1
20260903171622 25 229 0.0 3.2 0.00 0.36 0.36 65 1013.4
20260903170036 25 211 0.0 6.4 0.00 0.36 0.36 64 1013.1
20260903164634 25 242 1.6 8.0 0.00 0.36 0.36 63 1013.1
20260903163044 25 280 0.0 1.6 0.00 0.36 0.36 63 1013.4
20260903161507 24 282 0.0 4.8 0.00 0.36 0.36 61 1013.7
20260903154519 24 210 0.0 4.8 0.00 0.36 0.36 54 1013.8
20260903153112 23 209 0.0 4.8 0.00 0.36 0.36 57 1014.0
20260903151519 23 158 1.6 8.0 0.00 0.36 0.36 50 1014.1
20260903150113 22 258 0.0 1.6 0.00 0.36 0.36 21 1014.1
20260903144528 21 258 0.0 1.6 0.00 0.36 0.36 1 1014.0
20260903143116 21 260 0.0 1.6 0.00 0.36 0.36 1 1014.0
20260903141512 20 260 0.0 6.4 0.00 0.36 0.36 1 1014.0
20260903140008 20 271 0.0 1.6 0.00 0.36 0.36 1 1014.1
20260903134504 20 270 0.0 1.6 0.00 0.36 0.36 1 1014.1
20260903133100 19 271 0.0 0.0 0.00 0.36 0.36 1 1014.2
20260903131555 18 270 0.0 3.2 0.00 0.36 0.36 1 1014.4
20260903130050 18 360 0.0 0.0 0.00 0.36 0.36 1 1014.6
20260903124547 18 270 0.0 0.0 0.00 0.36 0.36 1 1014.5
20260903123043 18 270 0.0 0.0 0.00 0.36 0.36 1 1015.0
20260903121538 17 270 0.0 0.0 0.03 0.36 0.36 1 1014.9
20260903120034 17 360 0.0 0.0 0.03 0.36 0.36 1 1015.0
20260903114530 17 360 0.0 0.0 0.03 0.36 0.36 1 1015.3
20260903113029 17 360 0.0 0.0 0.03 0.36 0.36 1 1015.3
20260903111534 17 198 0.0 0.0 0.00 0.33 0.33 1 1015.3
20260903110017 17 198 0.0 0.0 0.00 0.33 0.33 1 1015.3
20260903104613 17 198 0.0 0.0 0.00 0.33 0.33 1 1015.5
20260903103009 16 163 0.0 0.0 0.00 0.33 0.33 1 1015.1
20260903101504 16 163 0.0 0.0 0.00 0.33 0.33 1 1015.2
20260903100103 16 163 0.0 0.0 0.00 0.33 0.33 1 1015.0
20260903094559 16 163 0.0 0.0 0.00 0.33 0.33 1 1014.8
20260903093106 16 163 0.0 0.0 0.00 0.33 0.33 1 1014.9
20260903091547 16 163 0.0 0.0 0.00 0.33 0.33 1 1014.9
20260903090043 16 163 0.0 0.0 0.00 0.33 0.33 1 1015.1
20260903084538 16 163 0.0 0.0 0.00 0.33 0.33 1 1015.3
20260903083038 16 163 0.0 0.0 0.00 0.33 0.33 1 1015.5
20260903081534 16 163 0.0 1.6 0.03 0.33 0.33 1 1015.6
20260903080026 16 292 0.0 0.0 0.05 0.33 0.33 1 1015.2
20260903074521 16 292 0.0 1.6 0.10 0.33 0.33 1 1015.6
20260903073019 16 250 0.0 0.0 0.15 0.33 0.33 1 1015.6
20260903071514 16 250 0.0 1.6 0.15 0.30 0.30 1 1015.8
20260903070009 15 250 0.0 3.2 0.15 0.25 0.25 1 1015.6
20260903064505 15 251 0.0 1.6 0.15 0.23 0.23 1 1015.7
20260903063001 15 250 0.0 1.6 0.13 0.18 0.18 1 1015.7
20260903061559 15 250 0.0 1.6 0.13 0.15 0.15 1 1015.9
20260903060057 15 250 0.0 1.6 0.08 0.10 0.10 1 1016.2
20260903054548 15 250 0.0 1.6 0.08 0.08 0.08 1 1016.8
20260903053045 15 250 0.0 0.0 0.05 0.05 0.05 1 1017.0
20260903051544 15 250 0.0 1.6 0.03 0.03 0.03 1 1017.7
20260903050043 15 250 0.0 4.8 0.03 0.03 0.03 1 1018.0
20260903044531 15 250 0.0 0.0 0.00 0.00 0.00 13 1018.0
20260903043128 16 250 0.0 0.0 0.00 0.00 0.00 25 1018.1
20260903041527 16 250 0.0 1.6 0.00 0.00 0.00 30 1018.1
20260903040024 16 254 0.0 0.0 0.00 0.00 0.00 33 1018.1
20260903034527 16 254 0.0 0.0 0.00 0.00 0.00 34 1018.3
20260903033015 16 254 0.0 3.2 0.00 0.00 0.00 34 1018.1
20260903031511 16 213 0.0 0.0 0.00 0.00 0.00 35 1017.7
20260903030009 16 213 0.0 1.6 0.00 0.00 0.00 34 1018.0
20260903024503 16 212 0.0 0.0 0.00 0.00 0.00 36 1018.3
20260903023058 16 212 0.0 0.0 0.00 0.00 0.00 36 1018.9
20260903021555 16 212 0.0 0.0 0.00 0.00 0.00 38 1019.0
20260903020052 16 212 0.0 0.0 0.00 0.00 0.00 40 1019.4
20260903014551 16 212 0.0 0.0 0.00 0.00 0.00 45 1019.8
20260903013042 16 211 0.0 1.6 0.00 0.00 0.00 48 1019.7
20260903011555 16 125 0.0 0.0 0.00 0.00 0.00 53 1019.5
20260903010034 16 63 0.0 0.0 0.00 0.00 0.00 50 1019.2
20260903004529 16 63 0.0 0.0 0.00 0.00 0.00 49 1018.6
20260903003024 16 63 0.0 0.0 0.00 0.00 0.00 50 1018.7
20260903001520 17 63 0.0 1.6 0.00 0.00 0.00 51 1019.0
20260903000019 17 63 0.0 0.0 0.00 0.00 0.00 52 1019.1
20260902234516 17 63 0.0 0.0 0.00 0.00 0.00 55 1019.1
20260902233008 17 63 0.0 0.0 0.00 0.00 0.00 58 1019.3
20260902231511 17 63 0.0 3.2 0.00 0.00 0.00 61 1019.4
20260902230100 17 63 0.0 0.0 0.00 0.00 0.00 61 1019.8
20260902224601 18 63 0.0 0.0 0.00 0.00 0.00 60 1020.3
20260902223051 18 63 0.0 0.0 0.00 0.00 0.00 56 1020.5
20260902221649 18 63 0.0 0.0 0.00 0.00 0.00 53 1020.6
20260902220043 18 63 0.0 0.0 0.00 0.00 0.00 45 1020.4
20260902214538 18 63 0.0 0.0 0.00 0.00 0.00 41 1020.2
20260902213034 18 63 0.0 1.6 0.00 0.00 0.00 40 1019.9
20260902211539 18 63 0.0 0.0 0.00 0.00 0.00 42 1020.3